Location: ??????
(38.0131°N, 23.7723°E)
Time: 17:34:55
(UTC+00:00)

Cosmos 1174 - Visible Passes

Search period start: 16 May 2022 00:00
Search period end: 26 May 2022 00:00
Orbit: 362 x 1144 km, 66.1° (Epoch: 16 May)

Date Brightness Start Highest point End Pass type
(mag) Time Alt. Az. Time Alt. Az. Time Alt. Az.
16 May 7.4 18:24:23 10° NNE 18:26:45 12° NNE 18:29:08 10° NE visible
16 May 6.0 20:04:39 10° NNW 20:11:36 42° NE 20:13:54 34° E visible
16 May 5.9 21:47:37 10° NW 21:53:50 42° W 21:53:50 42° W visible
17 May 6.5 19:22:48 10° N 19:29:05 29° NE 19:32:54 19° E visible
17 May 5.3 21:05:10 10° NW 21:12:30 67° WSW 21:12:50 66° SW visible
17 May 7.5 22:52:35 10° W 22:52:45 10° W 22:52:45 10° W visible
18 May 6.9 18:41:06 10° N 18:46:25 21° NE 18:51:42 10° E visible
18 May 5.2 20:22:55 10° NNW 20:30:22 83° ENE 20:31:52 60° SE visible
18 May 7.0 22:07:33 10° WNW 22:11:47 19° W 22:11:47 19° W visible
19 May 7.2 17:59:39 10° N 18:03:37 15° NE 18:07:34 10° ENE visible
19 May 5.6 19:40:49 10° NNW 19:48:05 56° ENE 19:50:56 36° ESE visible
19 May 6.3 21:24:20 10° NW 21:30:35 31° WSW 21:30:52 31° WSW visible
20 May 6.1 18:58:50 10° NNW 19:05:39 38° NE 19:10:02 20° ESE visible
20 May 5.7 20:41:39 10° NW 20:48:41 48° WSW 20:49:58 44° SW visible
21 May 6.6 18:16:59 10° N 18:23:04 27° NE 18:29:00 10° ESE visible
21 May 5.3 19:59:13 10° NNW 20:06:38 74° WSW 20:09:07 44° S visible
21 May 7.3 21:45:30 10° WNW 21:48:13 12° W 21:49:04 12° WSW visible
22 May 5.3 19:16:59 10° NNW 19:24:26 75° ENE 19:28:18 30° SE visible
22 May 6.8 21:01:18 10° WNW 21:06:31 21° WSW 21:08:15 20° WSW visible
23 May 5.7 18:34:53 10° NNW 18:42:05 51° NE 18:47:32 17° SE visible
23 May 6.3 20:18:14 10° NW 20:24:41 34° WSW 20:27:29 25° SSW visible
24 May 5.8 19:35:35 10° NW 19:42:44 54° WSW 19:46:45 25° S visible
25 May 5.3 18:53:11 10° NNW 19:00:38 82° WSW 19:06:03 18° SSE visible
25 May 7.3 20:38:47 10° WNW 20:42:19 14° W 20:45:44 10° SW visible
